{"data":{"norad_id":68656,"epoch":"2026-05-24T14:01:05.833056Z","epoch_age_seconds":117747,"freshness":"FRESH","line1":"1 68656U 26076A   26144.58409529 -.00000404  00000+0 -83699-3 0  9998","line2":"2 68656  86.4979  51.8734 0002625  81.2440 278.8997 13.34575222  6244","mean_motion":13.34575222,"eccentricity":0.0002625,"inclination_deg":86.4979,"raan_deg":51.8734,"arg_perigee_deg":81.244,"mean_anomaly_deg":278.8997,"bstar":-0.00083699,"rev_number":624,"period_min":107.89950062478,"perigee_km":1127.5846140015,"apogee_km":1131.5261525027,"semimajor_km":7507.6923832521,"source":"CELESTRAK","updated_at":"2026-05-25T13:38:07.995023Z"}}